sat.trackr.live / text

‹ back to catalog

TEMPSAT 1

NORAD 1512 · 1965-065E

PAYLOAD ACTIVE UNKNOWN

§ Identity

Operator
Country
US
Launch date
1965-08-13
Launch site
AFWTR
Launch vehicle
Mass (kg)
RCS (m²)
0.07

Purposes: military

External: N2YO · Heavens-Above · Gunter

§ Orbital elements

Epoch: 2026-09-20T02:43:28.036416Z

Period
107.98 min
Inclination
90.0070°
Eccentricity
0.0069301
Mean motion
13.33598779 rev/d
Perigee alt
1,081.2 km
Apogee alt
1,185.3 km
Semi-major
7,511.4 km
B*
8.1190e-5
RAAN
212.6153°
Arg perigee
343.7234°
Mean anomaly
27.3106°
Rev number
97,270

§ Raw data

TEMPSAT 11 01512U 65065E   26263.11351894  .00000049  00000+0  81190-4 0  99972 01512  90.0070 212.6153 0069301 343.7234  27.3106 13.33598779972701

JSON: /api/v1/satellites/1512 · /tle

For live sub-satellite position, see the globe view (requires WebGL).

§ Visibility from observer

Set your observer location to see the next 7 days of passes ≥ 10°. The values pass through the URL so the page stays shareable.

No JS? Fill the form by hand. The geolocation button needs JavaScript.